Flag for USA

Past Weather in Deltona, Florida, USA — Yesterday and Last 2 Weeks

Now
76 °F

Mostly cloudy.


Feels Like: 75 °F
Forecast: 82 / 76 °F
Wind: 7 mph from Northeast

Location: Orlando / Sanford Airport
Current Time: Sep 19, 2020 at 10:38:15 pm
Latest Report: Sep 19, 2020 at 9:53 pm
Visibility: 10 mi
Pressure29.96 "Hg
Humidity: 94%
Dew Point: 74 °F
Location of DeltonaLocation

Past Weather in Deltona — Graph

°F

Deltona Temperature Yesterday

Maximum temperature yesterday: 90 °F (at 3:53 pm)
Minimum temperature yesterday: 78 °F (at 2:53 am)
Average temperature yesterday: 82 °F

High & Low Weather Summary for the Past Weeks

 TemperatureHumidityPressure
High94 °F (Sep 5, 2:53 pm)94% (Sep 5, 6:53 am)30.12 "Hg (Sep 5, 6:53 am)
Low73 °F (Sep 19, 6:53 am)42% (Sep 5, 4:53 pm)29.81 "Hg (Sep 17, 4:53 pm)
Average81 °F81%29.94 "Hg
* Reported Sep 4 8:53 pm — Sep 19 8:53 pm, Deltona. Weather by CustomWeather, © 2020

Note: Actual official high and low records may vary slightly from our data, if they occured in-between our weather recording intervals... More about our weather records

Deltona Weather History for the Previous 24 Hours

Scroll right to see more
 ConditionsComfort  
Time TempWeatherWind HumidityBarometerVisibility
8:53 pm
Sat, Sep 19
76 °FLight rain. Mostly cloudy.8 mph94%29.95 "Hg10 mi
7:53 pm76 °FOvercast.12 mph91%29.94 "Hg10 mi
7:19 pm77 °FRain. Fog.10 mph94%29.93 "Hg3 mi
7:01 pm77 °FRain. Fog.12 mph94%29.93 "Hg2 mi
6:36 pm77 °FRain. Fog.10 mph94%29.92 "Hg2 mi
6:06 pm77 °FHeavy rain. Fog.8 mph94%29.92 "Hg1 mi
5:53 pm78 °FRain. Fog.13 mph90%29.91 "Hg2 mi
5:44 pm79 °FLight rain. Fog.10 mph88%29.92 "Hg2 mi
4:53 pm83 °FMostly cloudy.15 mph74%29.89 "Hg10 mi
4:41 pm84 °FCloudy.12 mph74%29.89 "Hg10 mi
3:53 pm85 °FMostly cloudy.15 mph70%29.88 "Hg10 mi
2:53 pm88 °FPartly sunny.8 mph57%29.89 "Hg10 mi
1:53 pm90 °FPartly sunny.9 mph52%29.91 "Hg10 mi
12:53 pm87 °FPassing clouds.8 mph59%29.93 "Hg10 mi
11:53 am87 °FPassing clouds.7 mph59%29.95 "Hg10 mi
10:53 am84 °FSunny.No wind70%29.94 "Hg10 mi
9:53 am79 °FSunny.5 mph82%29.94 "Hg10 mi
8:53 am76 °FSunny.6 mph88%29.93 "Hg10 mi
8:34 am75 °FPassing clouds.7 mph90%29.94 "Hg10 mi
7:53 am74 °FSunny.6 mph91%29.92 "Hg10 mi
7:16 am73 °FPassing clouds.3 mph94%29.91 "Hg10 mi
6:53 am73 °FClear.5 mph90%29.90 "Hg10 mi
5:53 am74 °FClear.5 mph88%29.89 "Hg10 mi
4:53 am74 °FClear.5 mph88%29.89 "Hg10 mi
3:53 am75 °FClear.6 mph85%29.90 "Hg10 mi
2:53 am76 °FClear.7 mph82%29.90 "Hg10 mi
1:53 am77 °FPassing clouds.5 mph79%29.91 "Hg10 mi
12:53 am77 °FClear.6 mph77%29.93 "Hg10 mi
11:53 pm
Fri, Sep 18
79 °FPassing clouds.6 mph72%29.92 "Hg10 mi
10:53 pm80 °FPartly cloudy.8 mph74%29.92 "Hg10 mi
10:25 pm81 °FMostly cloudy.8 mph74%29.92 "Hg10 mi
Weather by CustomWeather, © 2020

See weather overview